Flag for Canada Weather past 2 weeks in Arctic Bay, Nunavut, Canada

Now
37 °F

Scattered clouds.


Feels Like: 37 °F
Forecast: 36 / 45 °F
Wind: 2 mph from North

Location: Pond Inlet

Current Time: Sep 2, 2015 at 11:03:06 AM

Latest Report: Sep 2, 2015 at 10:00 AM


Visibility: 9 mi

Pressure: 30.00 "Hg

Humidity: 70%

Dew point: 28 °F

Location of Arctic BayLocation

Historic Weather in Arctic Bay — Graph

°F

Arctic Bay temperature yesterday

Maximum temperature yesterday: 39 °F (at 12:00 PM)
Minimum temperature yesterday: 27 °F (at 2:00 AM)
Average temperature yesterday: 35 °F

Past Weeks' High & Low Weather Summary

 TemperatureHumidityPressure
High50 °F (Aug 20, 6:00 PM)100% (Aug 25, 7:00 AM)30.35 "Hg (Aug 25, 7:00 AM)
Low27 °F (Sep 1, 2:00 AM)42% (Aug 31, 4:00 PM)29.67 "Hg (Aug 18, 10:00 AM)
Average39 °F77%30.04 "Hg
* Reported Aug 18 10:00 AM — Sep 2 10:00 AM, Arctic Bay, Weather by CustomWeather, © 2015

Note: Actual official high and low records may vary slightly from our data, if they occured in-between our weather recording intervals... More about our weather records

Advertising

Arctic Bay weather history for previous 24 hours

 ConditionsComfort  
Time TempWeatherWind HumidityBarometerVisibility
10:00 AM
Wed, Sep 2
37 °FScattered clouds.2 mph70%30.00 "Hg9 mi
9:00 AM34 °FScattered clouds.No wind81%30.00 "Hg9 mi
8:00 AM34 °FPartly sunny.No wind75%30.00 "Hg9 mi
7:00 AM34 °FScattered clouds.2 mph70%29.99 "Hg9 mi
6:00 AM34 °FOvercast.No wind65%29.98 "Hg9 mi
5:00 AM34 °FPartly sunny.No wind65%29.97 "Hg9 mi
4:00 AM30 °FOvercast.3 mph69%29.96 "Hg9 mi
3:00 AM32 °FPassing clouds.2 mph69%29.96 "Hg9 mi
2:00 AM34 °FPassing clouds.2 mph70%29.95 "Hg9 mi
1:00 AM36 °FOvercast.No wind65%29.95 "Hg9 mi
12:00 AM36 °FOvercast.No wind65%29.95 "Hg9 mi
11:00 PM
Tue, Sep 1
34 °FOvercast.2 mph70%29.96 "Hg9 mi
10:00 PM34 °FPassing clouds.6 mph70%29.97 "Hg9 mi
9:00 PM37 °FClear.8 mph60%29.97 "Hg9 mi
8:00 PM37 °FSunny.8 mph65%29.96 "Hg9 mi
7:00 PM39 °FPassing clouds.7 mph61%29.97 "Hg30 mi
6:00 PM39 °FPassing clouds.8 mph56%29.97 "Hg30 mi
5:00 PM39 °FPassing clouds.9 mph56%29.97 "Hg30 mi
4:00 PM39 °FPassing clouds.7 mph61%29.98 "Hg30 mi
3:00 PM39 °FPassing clouds.9 mph61%29.98 "Hg30 mi
2:00 PM39 °FPassing clouds.8 mph65%29.99 "Hg30 mi
1:00 PM39 °FPassing clouds.7 mph56%29.99 "Hg30 mi
12:00 PM39 °FPassing clouds.5 mph48%29.99 "Hg30 mi
11:00 AM37 °FPassing clouds.3 mph65%30.00 "Hg30 mi
Weather by CustomWeather, © 2015

See weather overviewHow to use our weather pages